La Palma > ESTACION METEOROLÓGICA Bellido - Tijarafe

DATOS ACTUALES Online

Ultima actulizacion 9 minutos

17.9 ºC

Temperatura

40

Humedad (%)

1018.2

Presión (mb)

0

Precipitación (mm)

7.74 SW

Viento (Km/h)

DATOS DIARIOS

Temperatura últimas 24 horas (ºC)

Humedad últimas 24 horas (%)

Presión atmosférica últimas 24 horas (mb)

Precipitaciones últimas 23 horas (mm)

Viento últimas 24 horas (Km/h)

Hora Temperatura (°C) ºC Precipitación (mm) mm Presión (mb) mb Humedad (%) % Viento (Km/h) km/h
19 - 11:00 14.9 0 1019 45 7.74 SW
19 - 12:00 15.3 0 1019 46 9.36 SE
19 - 13:00 17.4 0 1018 61 12.6 SW
19 - 14:00 17.9 0 1017 64 17.28 SW
19 - 15:00 17.7 0 1017 63 17.28 SW
19 - 16:00 17.7 0 1017 59 9.36 SW
19 - 17:00 17.3 0 1017 60 7.74 SE
19 - 18:00 14.9 0 1018 62 6.3 S
19 - 19:00 14.8 0 1018 64 3.06 SW
19 - 20:00 14.9 0 1019 64 1.62 S
19 - 21:00 15.1 0 1019 64 14.04 SE
19 - 22:00 14.9 0 1020 64 4.68 SW
19 - 23:00 14 0 1019 66 0 SE
20 - 00:00 14.8 0 1019 64 6.3 SE
20 - 01:00 14.4 0 1018 63 3.06 NE
20 - 02:00 13.3 0 1018 63 1.62 SE
20 - 03:00 14.3 0 1017 57 1.62 S
20 - 04:00 14.6 0 1017 51 4.68 E
20 - 05:00 15 0 1016 49 9.36 SE
20 - 06:00 14.8 0 1017 44 4.68 SW
20 - 07:00 15.2 0 1017 43 3.06 SE
20 - 08:00 15.2 0 1018 46 10.98 SE
20 - 09:00 16.2 0 1018 42 9.36 SW
20 - 10:00 17.6 0 1018 38 14.04 SE
20 - 11:00 17.9 0 1018 40 7.74 SW
Apalmet utiliza cookies propias y de terceros para mejorar la usabilidad y la experiencia web. Política de cookies.